Birmingham, AL

9:13 PM CST on February 19, 2017 (GMT -0600)
Birmingham International

Weather History for KBHM - July, 2013

Change the Weather History Date:

Sunday, July 21, 2013

  Actual Average Record
Temperature  
Mean Temperature 78 °F 81 °F  
Max Temperature 86 °F 91 °F 101 °F (1952)
Min Temperature 70 °F 72 °F 61 °F (1947)
Cooling Degree Days 13 16  
Month to date cooling degree days 286 333  
Year to date cooling degree days 972 997  
Since 1 June cooling degree days 707 715  
Growing Degree Days 28 (Base 50)    
Moisture  
Dew Point 71 °F    
Average Humidity 82    
Maximum Humidity 94    
Minimum Humidity 69    
Precipitation  
Precipitation 3.19 in 0.15 in 3.19 in (2013)
Month to date precipitation 5.97 3.31  
Year to date precipitation 45.14 31.66  
Sea Level Pressure  
Sea Level Pressure 30.03 in    
Wind  
Wind Speed 4 mph (SSE)    
Max Wind Speed 22 mph    
Max Gust Speed 30 mph    
Visibility 7 miles    
Events Fog , Rain , Thunderstorm    
T = Trace of Precipitation, MM = Missing Value Source: NWS Daily Summary

Daily Weather History Graph

Daily Weather History Graph

Search for Another Location

Airport or City:

Trip Planner

Search our weather history database for the weather conditions in past years. The results will help you decide how hot, cold, wet, or windy it might be!

Date:

Astronomy

Jul. 21, 2013 Rise Set
Actual Time 5:51 AM CDT 7:54 PM CDT
Civil Twilight 5:23 AM CDT 8:22 PM CDT
Nautical Twilight 4:50 AM CDT 8:56 PM CDT
Astronomical Twilight 4:13 AM CDT 9:32 PM CDT
Moon 6:54 PM CDT (7/21) 4:36 AM CDT (7/21)
Length of Visible Light 14h 58m
Length of Day
14h 02m
Waxing Gibbous, 98% of the Moon is Illuminated
Jul 21
Waxing Gibbous
Jul 22
Full
Jul 29
Last Quarter
Aug 6
New
Aug 14
First Quarter

Hourly Weather History & Observations

Time (CDT) Temp. Heat Index Dew Point Humidity Pressure Visibility Wind Dir Wind Speed Gust Speed Precip Events Conditions
12:53 AM 75.0 °F - 72.0 °F 90% 30.01 in 10.0 mi Calm Calm - N/A   Clear
1:53 AM 75.0 °F - 72.0 °F 90% 29.99 in 10.0 mi Calm Calm - N/A   Clear
2:53 AM 73.9 °F - 71.1 °F 91% 29.98 in 10.0 mi Calm Calm - N/A   Clear
3:53 AM 75.0 °F - 72.0 °F 90% 29.99 in 10.0 mi Calm Calm - N/A   Scattered Clouds
4:12 AM 73.4 °F - 71.6 °F 94% 30.02 in 10.0 mi Calm Calm - N/A   Mostly Cloudy
4:39 AM 75.2 °F - 71.6 °F 89% 30.02 in 10.0 mi Calm Calm - N/A   Overcast
4:53 AM 75.0 °F - 72.0 °F 90% 29.99 in 10.0 mi Calm Calm - N/A   Mostly Cloudy
5:37 AM 73.4 °F - 71.6 °F 94% 30.02 in 10.0 mi SSE 3.5 mph - N/A   Mostly Cloudy
5:53 AM 73.9 °F - 72.0 °F 93% 30.00 in 10.0 mi SSE 3.5 mph - N/A   Scattered Clouds
6:37 AM 75.2 °F - 71.6 °F 89% 30.04 in 10.0 mi Calm Calm - N/A   Mostly Cloudy
6:53 AM 75.0 °F - 72.0 °F 90% 30.02 in 9.0 mi SSW 4.6 mph - N/A   Mostly Cloudy
7:53 AM 75.0 °F - 73.0 °F 94% 30.04 in 6.0 mi WSW 5.8 mph - N/A   Overcast
8:53 AM 75.9 °F - 73.0 °F 91% 30.04 in 6.0 mi SW 5.8 mph - N/A   Overcast
9:38 AM 78.8 °F - 73.4 °F 83% 30.05 in 7.0 mi SW 3.5 mph - N/A   Overcast
9:53 AM 79.0 °F - 73.0 °F 82% 30.04 in 8.0 mi SW 3.5 mph - N/A   Mostly Cloudy
10:05 AM 78.8 °F - 73.4 °F 83% 30.06 in 9.0 mi Calm Calm - N/A   Mostly Cloudy
10:30 AM 82.4 °F 87.2 °F 71.6 °F 70% 30.06 in 10.0 mi SW 3.5 mph - N/A   Scattered Clouds
10:53 AM 82.9 °F 88.0 °F 72.0 °F 69% 30.03 in 10.0 mi Calm Calm - N/A   Scattered Clouds
11:18 AM 84.2 °F 89.6 °F 71.6 °F 66% 30.05 in 10.0 mi Calm Calm - N/A   Mostly Cloudy
11:49 AM 82.4 °F 88.2 °F 73.4 °F 74% 30.05 in 8.0 mi WNW 5.8 mph - N/A   Overcast
11:53 AM 81.0 °F 85.8 °F 73.0 °F 77% 30.03 in 2.0 mi Variable 3.5 mph - 0.02 in Rain Rain
11:59 AM 77.0 °F - 73.4 °F 89% 30.05 in 1.0 mi SSE 6.9 mph - 0.15 in Rain , Thunderstorm Heavy Thunderstorms and Rain
12:13 PM 77.0 °F - 69.8 °F 78% 30.04 in 2.5 mi SE 6.9 mph - 0.21 in Rain , Thunderstorm Heavy Thunderstorms and Rain
12:25 PM 75.2 °F - 71.6 °F 89% 30.05 in 3.0 mi South 4.6 mph - 0.24 in Rain , Thunderstorm Thunderstorms and Rain
12:29 PM 75.2 °F - 71.6 °F 89% 30.04 in 1.8 mi South 4.6 mph - 0.27 in Rain , Thunderstorm Heavy Thunderstorms and Rain
12:53 PM 73.0 °F - 69.1 °F 87% 30.04 in 0.5 mi WNW 18.4 mph 24.2 mph 0.56 in Fog , Rain , Thunderstorm Heavy Thunderstorms and Rain
1:02 PM 71.6 °F - 69.8 °F 94% 30.07 in 0.5 mi NNW 13.8 mph 26.5 mph 0.26 in Fog , Rain , Thunderstorm Heavy Thunderstorms and Rain
1:22 PM 71.6 °F - 68.0 °F 88% 30.03 in 2.5 mi NE 12.7 mph - 0.93 in Rain , Thunderstorm Light Thunderstorms and Rain
1:25 PM 71.6 °F - 68.0 °F 88% 30.03 in 6.0 mi ENE 11.5 mph - 0.93 in Rain , Thunderstorm Light Thunderstorms and Rain
1:37 PM 71.6 °F - 69.8 °F 94% 30.02 in 10.0 mi East 5.8 mph - 0.93 in Rain Light Rain
1:53 PM 73.0 °F - 70.0 °F 90% 29.99 in 10.0 mi Calm Calm - 0.94 in   Mostly Cloudy
2:53 PM 79.0 °F - 73.0 °F 82% 29.97 in 10.0 mi Calm Calm - N/A   Partly Cloudy
3:53 PM 84.9 °F 92.1 °F 73.9 °F 69% 29.95 in 10.0 mi SE 3.5 mph - N/A   Partly Cloudy
4:36 PM 80.6 °F 85.4 °F 73.4 °F 79% 29.99 in 9.0 mi Variable 6.9 mph - 0.00 in Rain , Thunderstorm Light Thunderstorms and Rain
4:53 PM 79.0 °F - 69.1 °F 72% 29.96 in 10.0 mi East 9.2 mph 18.4 mph 0.00 in Rain , Thunderstorm Light Thunderstorms and Rain
5:00 PM 78.8 °F - 69.8 °F 74% 29.98 in 10.0 mi East 12.7 mph - N/A Thunderstorm Thunderstorm
5:53 PM 73.9 °F - 70.0 °F 87% 29.99 in 4.0 mi SSE 8.1 mph 20.7 mph 0.09 in Rain , Thunderstorm Light Thunderstorms and Rain
6:02 PM 73.4 °F - 69.8 °F 88% 30.01 in 1.8 mi SW 15.0 mph 19.6 mph 0.04 in Rain , Thunderstorm Heavy Thunderstorms and Rain
6:11 PM 71.6 °F - 68.0 °F 88% 30.01 in 0.5 mi Calm Calm - 0.32 in Fog , Rain , Thunderstorm Heavy Thunderstorms and Rain
6:16 PM 71.6 °F - 68.0 °F 88% 30.02 in 7.0 mi NNE 9.2 mph - 0.45 in Rain , Thunderstorm Thunderstorms and Rain
6:22 PM 73.4 °F - 69.8 °F 88% 30.04 in 2.5 mi North 17.3 mph 29.9 mph 0.46 in Rain , Thunderstorm Thunderstorms and Rain
6:24 PM 73.4 °F - 69.8 °F 88% 30.05 in 3.0 mi NNW 17.3 mph 29.9 mph 0.46 in Rain , Thunderstorm Thunderstorms and Rain
6:31 PM 73.4 °F - 69.8 °F 88% 30.09 in 1.5 mi NW 18.4 mph - 0.48 in Rain , Thunderstorm Heavy Thunderstorms and Rain
6:36 PM 71.6 °F - 69.8 °F 94% 30.09 in 0.5 mi NW 12.7 mph 23.0 mph 0.70 in Fog , Rain , Thunderstorm Heavy Thunderstorms and Rain
6:38 PM 71.6 °F - 69.8 °F 94% 30.08 in 0.2 mi WNW 9.2 mph 23.0 mph 0.86 in Fog , Rain , Thunderstorm Heavy Thunderstorms and Rain
6:50 PM 71.6 °F - 69.8 °F 94% 30.04 in 0.5 mi SE 4.6 mph - 1.46 in Fog , Rain , Thunderstorm Heavy Thunderstorms and Rain
6:53 PM 71.1 °F - 69.1 °F 93% 30.02 in 1.0 mi SE 5.8 mph - 1.50 in Rain , Thunderstorm Heavy Thunderstorms and Rain
6:58 PM 71.6 °F - 69.8 °F 94% 30.04 in 3.0 mi SE 9.2 mph - 0.03 in Rain , Thunderstorm Light Thunderstorms and Rain
7:24 PM 71.6 °F - 69.8 °F 94% 30.02 in 10.0 mi East 4.6 mph - 0.06 in   Scattered Clouds
7:53 PM 72.0 °F - 69.1 °F 91% 30.00 in 10.0 mi Calm Calm - 0.06 in   Partly Cloudy
8:44 PM 71.6 °F - 69.8 °F 94% 30.04 in 10.0 mi Calm Calm - N/A   Mostly Cloudy
8:48 PM 71.6 °F - 69.8 °F 94% 30.05 in 10.0 mi Calm Calm - N/A Thunderstorm Thunderstorm
8:53 PM 72.0 °F - 69.1 °F 91% 30.03 in 10.0 mi NW 4.6 mph - N/A Thunderstorm Thunderstorm
9:09 PM 71.6 °F - 69.8 °F 94% 30.07 in 10.0 mi WNW 12.7 mph - N/A Thunderstorm Thunderstorm
9:34 PM 71.6 °F - 69.8 °F 94% 30.06 in 7.0 mi ESE 3.5 mph - 0.01 in Rain , Thunderstorm Light Thunderstorms and Rain
9:53 PM 71.1 °F - 70.0 °F 96% 30.04 in 10.0 mi Calm Calm - 0.01 in Thunderstorm Thunderstorm
10:33 PM 71.6 °F - 69.8 °F 94% 30.08 in 10.0 mi Calm Calm - N/A   Partly Cloudy
10:53 PM 72.0 °F - 69.1 °F 91% 30.05 in 10.0 mi Calm Calm - 0.00 in   Partly Cloudy
11:12 PM 71.6 °F - 69.8 °F 94% 30.07 in 8.0 mi Calm Calm - 0.01 in Rain Light Rain
11:28 PM 71.6 °F - 69.8 °F 94% 30.06 in 8.0 mi Calm Calm - 0.01 in   Mostly Cloudy
11:35 PM 71.6 °F - 69.8 °F 94% 30.05 in 8.0 mi Calm Calm - 0.01 in   Scattered Clouds
11:53 PM 71.1 °F - 69.1 °F 93% 30.02 in 8.0 mi SE 3.5 mph - 0.01 in   Partly Cloudy